www.pogodaiklimat.ru

Погода и климат >> Архив погоды >> Япония >> Ундзэн


ПОГОДА на Ундзэне

  • Прогноз погоды на Ундзэне
  • Монитор погоды на Ундзэне

АРХИВ ПОГОДЫ на Ундзэне

Время (UTC), дата Ветер
(напр.,м/с)
 
Видим.   Явления Облачность Т
(С)
Тd
(С)
f
(%)
Тe
(С)
Тes
(С)
Комфортность P
(гПа)
Po
(гПа)
Тmin
(С)
Tmax
(С)
R
(мм)
R24
(мм)
S
(см)
06 19.08 В 2 20 км в посл. час дождь н/о +24.0 +21.9 88 +31 +31 очень
душно
1007.3 932.8 2
09 19.08 В 3 1900 м слаб. дождь н/о +22.2 +22.2 100 +30 +30 очень
душно
1008.3 933.2
10 19.08 В 9 10 км слаб. дождь н/о +22.9 +21.7 93 +31 +31 очень
душно
1006.4 931.6
11 19.08 В 7 20 км слаб. дождь н/о +21.9 +21.1 95 +28 +28 душно 1007.4 932.3
12 19.08 ЮВ 8 20 км в посл. час дождь н/о +21.4 +20.9 97 +27 +27 душно 1008.2 932.9 +26.0 12
13 19.08 В 8 20 км н/о +22.1 +20.2 89 +28 +28 душно 1008.5 933.4
14 19.08 В 8 16 км н/о +21.8 +21.6 99 +28 +28 душно 1009.1 933.8
15 19.08 ЮВ 7 8000 м дымка н/о +22.0 +22.0 100 +29 +29 очень
душно
1008.9 933.7
16 19.08 В 6 20 км слаб. дождь н/о +23.1 +22.3 95 +32 +32 очень
душно
1008.2 933.4
17 19.08 В 5 11 км слаб. дождь н/о +22.5 +22.0 97 +30 +30 очень
душно
1008.0 933.0
18 19.08 ЮВ 7 13 км слаб. дождь н/о +22.6 +22.3 98 +30 +30 очень
душно
1008.4 933.4 0.0
19 19.08 В 6 8000 м слаб. дождь н/о +23.1 +22.3 95 +32 +32 очень
душно
1007.7 932.9
20 19.08 В 5 400 м сильн. дождь н/о +22.0 +22.0 100 +29 +29 очень
душно
1008.2 933.1
21 19.08 В 4 2600 м дождь н/о +22.4 +22.2 99 +30 +30 очень
душно
1009.0 933.9
22 19.08 ЮВ 6 2500 м дождь н/о +22.4 +22.2 99 +30 +30 очень
душно
1009.0 933.9
23 19.08 ЮВ 8 9000 м слаб. дождь н/о +22.1 +22.1 100 +29 +29 очень
душно
1010.0 934.8
00 20.08 ЮВ 7 7000 м слаб. дождь н/о +22.2 +21.9 98 +29 +29 очень
душно
1009.7 934.5 +20.8 83
01 20.08 Ю 5 20 км слаб. дождь н/о +22.5 +22.2 98 +30 +30 очень
душно
1010.0 934.9
02 20.08 Ю 6 3300 м в посл. час дождь н/о +22.0 +22.0 100 +29 +29 очень
душно
1010.3 935.0
03 20.08 Ю 7 2900 м в посл. час туман {дождь} н/о +22.7 +22.7 100 +31 +31 очень
душно
1010.2 935.1
04 20.08 Ю 6 4800 м в посл. час туман н/о +23.4 +23.4 100 +33 +33 очень
душно
1009.2 934.4
05 20.08 Ю 7 4400 м дымка н/о +23.4 +23.2 99 +33 +33 очень
душно
1008.9 934.1
06 20.08 Ю 7 9000 м дымка {дождь, туман} н/о +23.6 +23.3 98 +32 +32 очень
душно
1009.0 934.2 1
07 20.08 Ю 8 1400 м слаб. дождь н/о +23.2 +23.2 100 +33 +33 очень
душно
1009.2 934.3
08 20.08 Ю 8 2600 м слаб. дождь н/о +23.1 +23.1 100 +32 +32 очень
душно
1009.3 934.4
10 20.08 Ю 7 200 м туман н/о +23.1 +23.1 100 +32 +32 очень
душно
1009.6 934.7
11 20.08 Ю 6 500 м туман н/о +23.0 +23.0 100 +32 +32 очень
душно
1010.4 935.4
12 20.08 Ю 7 1100 м в посл. час туман {дождь} н/о +22.9 +22.9 100 +32 +32 очень
душно
1011.1 936.0 +23.8 4
13 20.08 Ю 7 2200 м в посл. час туман н/о +22.9 +22.9 100 +32 +32 очень
душно
1011.4 936.3
14 20.08 Ю 7 400 м туман н/о +22.8 +22.8 100 +31 +31 очень
душно
1011.4 936.2
15 20.08 Ю 7 100 м туман н/о +22.8 +22.8 100 +31 +31 очень
душно
1010.6 935.5
16 20.08 Ю 8 <100 м туман н/о +22.8 +22.8 100 +31 +31 очень
душно
1010.2 935.1
17 20.08 Ю 7 100 м туман н/о +22.7 +22.7 100 +31 +31 очень
душно
1010.2 935.1
18 20.08 Ю 6 200 м туман н/о +22.5 +22.5 100 +30 +30 очень
душно
1010.5 935.3
20 20.08 Ю 6 200 м туман н/о +22.5 +22.5 100 +30 +30 очень
душно
1010.5 935.3
22 20.08 Ю 6 100 м туман н/о +22.4 +22.4 100 +30 +30 очень
душно
1010.9 935.7
23 20.08 ЮЗ 5 1700 м в посл. час туман н/о +22.4 +22.4 100 +30 +30 очень
душно
1011.4 936.1
00 21.08 ЮЗ 3 6000 м дымка {туман} н/о +23.0 +23.0 100 +32 +32 очень
душно
1011.5 936.4 +22.2
01 21.08 ЮЗ 3 12 км н/о +23.3 +22.5 95 +32 +32 очень
душно
1011.6 936.6
02 21.08 З 3 15 км н/о +24.1 +23.1 94 +32 +32 очень
душно
1011.6 936.8
03 21.08 З 3 17 км н/о +25.8 +23.9 89 +35 +35 очень
душно
1010.9 936.6
05 21.08 ЮЗ 2 20 км н/о +25.1 +23.3 90 +34 +34 очень
душно
1010.2 935.7
06 21.08 ЮЗ 2 20 км н/о +25.0 +23.3 90 +33 +33 очень
душно
1009.9 935.4
07 21.08 З 3 14 км н/о +25.6 +23.3 87 +34 +34 очень
душно
1009.7 935.4
09 21.08 З 2 20 км н/о +23.9 +22.5 92 +31 +31 очень
душно
1010.2 935.4
10 21.08 З 3 19 км н/о +22.5 +21.8 96 +30 +30 очень
душно
1011.0 935.8
11 21.08 ЮЗ 4 17 км н/о +21.4 +21.1 98 +27 +27 душно 1012.1 936.5
12 21.08 ЮЗ 5 20 км н/о +21.1 +20.8 98 +26 +26 душно 1012.2 936.5 +26.6
13 21.08 ЮЗ 3 16 км н/о +20.9 +20.7 99 +26 +26 душно 1012.7 936.9
15 21.08 Ю 4 9000 м дымка н/о +22.0 +21.8 99 +29 +29 очень
душно
1011.7 936.3
16 21.08 Ю 5 20 км н/о +22.1 +21.3 95 +29 +29 очень
душно
1011.2 935.9
17 21.08 Ю 4 7000 м дымка н/о +21.8 +21.8 100 +28 +28 душно 1010.9 935.5
18 21.08 Ю 5 6000 м дымка н/о +21.8 +21.8 100 +28 +28 душно 1010.7 935.3
19 21.08 Ю 6 1000 м в посл. час туман н/о +21.7 +21.7 100 +28 +28 душно 1010.8 935.4
20 21.08 Ю 6 700 м туман н/о +21.7 +21.7 100 +28 +28 душно 1010.7 935.3
22 21.08 Ю 5 1800 м дымка н/о +21.8 +21.8 100 +28 +28 душно 1011.1 935.7
23 21.08 Ю 5 800 м туман н/о +22.1 +22.1 100 +29 +29 очень
душно
1011.1 935.8
00 22.08 Ю 5 2300 м слаб. дождь {туман} н/о +22.1 +22.1 100 +29 +29 очень
душно
1011.1 935.8 +20.6 0.0
01 22.08 ЮЗ 5 100 м туман н/о +22.1 +22.1 100 +29 +29 очень
душно
1011.0 935.7
02 22.08 ЮЗ 5 200 м туман н/о +22.5 +22.5 100 +30 +30 очень
душно
1010.9 935.7
04 22.08 ЮЗ 5 12 км в посл. час дождь н/о +22.6 +22.6 100 +31 +31 очень
душно
1010.1 935.0
05 22.08 ЮЗ 5 17 км н/о +23.3 +23.3 100 +33 +33 очень
душно
1009.7 934.8
06 22.08 З 6 20 км {дождь, туман} н/о +23.5 +23.3 99 +32 +32 очень
душно
1009.3 934.5 2
07 22.08 ЮЗ 7 20 км н/о +23.5 +22.8 96 +31 +31 очень
душно
1009.4 934.6
08 22.08 ЮЗ 5 20 км н/о +23.2 +22.7 97 +32 +32 очень
душно
1009.5 934.6
09 22.08 ЮЗ 7 18 км н/о +22.9 +22.7 99 +31 +31 очень
душно
1009.8 934.8
11 22.08 ЮЗ 6 5000 м дымка н/о +22.7 +22.7 100 +31 +31 очень
душно
1010.5 935.4
12 22.08 ЮЗ 6 100 м туман н/о +22.7 +22.7 100 +31 +31 очень
душно
1010.6 935.5 +24.0 2
13 22.08 ЮЗ 6 8000 м в посл. час дождь н/о +22.3 +22.3 100 +30 +30 очень
душно
1011.3 936.0
14 22.08 ЮЗ 5 11 км слаб. дождь н/о +22.4 +22.4 100 +30 +30 очень
душно
1010.8 935.6
15 22.08 ЮЗ 7 2300 м слаб. дождь {туман} н/о +22.4 +22.4 100 +30 +30 очень
душно
1010.4 935.2
16 22.08 ЮЗ 6 1000 м слаб. дождь н/о +22.5 +22.5 100 +30 +30 очень
душно
1010.0 934.9
17 22.08 ЮЗ 6 8000 м слаб. дождь н/о +22.3 +22.3 100 +30 +30 очень
душно
1009.9 934.7
18 22.08 ЮЗ 6 2700 м в посл. час дождь {туман} н/о +22.4 +22.4 100 +30 +30 очень
душно
1009.6 934.5 2
19 22.08 ЮЗ 7 600 м слаб. дождь н/о +22.3 +22.3 100 +30 +30 очень
душно
1009.7 934.5
20 22.08 ЮЗ 9 4900 м дождь н/о +22.5 +22.5 100 +30 +30 очень
душно
1010.3 935.1
21 22.08 З 7 2700 м дождь н/о +21.3 +21.3 100 +27 +27 душно 1010.8 935.3
22 22.08 З 5 1600 м дождь н/о +21.7 +21.7 100 +28 +28 душно 1010.6 935.2
23 22.08 З 5 1100 м дождь н/о +22.1 +22.1 100 +29 +29 очень
душно
1010.9 935.6
00 23.08 З 4 10 км слаб. дождь н/о +22.1 +21.4 96 +29 +29 очень
душно
1010.8 935.5 +21.0 53
01 23.08 З 4 7000 м в посл. час дождь н/о +22.3 +21.8 97 +30 +30 очень
душно
1011.7 936.4
02 23.08 ЮЗ 4 7000 м в посл. час дождь н/о +23.3 +22.3 94 +32 +32 очень
душно
1011.1 936.1
03 23.08 ЮЗ 3 11 км {дождь} н/о +23.7 +22.1 91 +31 +31 очень
душно
1010.6 935.7
04 23.08 З 4 7000 м дымка н/о +23.1 +22.3 95 +32 +32 очень
душно
1010.4 935.4
05 23.08 ЮЗ 4 5000 м дымка н/о +23.0 +22.2 95 +31 +31 очень
душно
1010.3 935.3
06 23.08 ЮЗ 4 9000 м дымка {дождь} н/о +22.6 +20.9 90 +30 +30 очень
душно
1010.1 935.0 0.5
07 23.08 ЮЗ 5 8000 м дымка н/о +22.6 +21.4 93 +30 +30 очень
душно
1010.1 935.0
08 23.08 ЮЗ 5 3900 м слаб. дождь н/о +21.5 +21.2 98 +27 +27 душно 1010.8 935.3
09 23.08 ЮЗ 5 1200 м дождь н/о +21.9 +21.9 100 +29 +29 очень
душно
1010.3 935.0
11 23.08 З 4 2100 м дождь н/о +21.3 +21.3 100 +27 +27 душно 1011.4 935.8
13 23.08 З 5 1900 м сильн. дождь н/о +21.3 +21.3 100 +27 +27 душно 1011.8 936.2
14 23.08 З 5 3000 м дождь н/о +21.1 +21.1 100 +26 +26 душно 1011.8 936.1
15 23.08 З 7 2700 м дождь н/о +21.1 +21.1 100 +26 +26 душно 1011.8 936.1
16 23.08 З 5 200 м слаб. дождь н/о +20.9 +20.9 100 +26 +26 душно 1011.6 935.9
17 23.08 З 5 2100 м в посл. час дождь н/о +20.9 +20.9 100 +26 +26 душно 1011.4 935.7
18 23.08 З 5 300 м слаб. дождь {туман} н/о +21.0 +21.0 100 +27 +27 душно 1011.2 935.6 34
19 23.08 З 6 4000 м в посл. час дождь н/о +20.2 +19.9 98 +24 +24 комфорт 1011.5 935.6
20 23.08 З 5 3200 м дымка н/о +21.1 +21.1 100 +26 +26 душно 1011.3 935.7
21 23.08 З 4 3100 м дымка {дождь} н/о +21.3 +21.3 100 +27 +27 душно 1011.7 936.1
22 23.08 З 3 1400 м дождь н/о +21.2 +21.2 100 +27 +27 душно 1012.0 936.4
23 23.08 З 3 3500 м слаб. дождь н/о +21.4 +21.4 100 +27 +27 душно 1011.9 936.3
00 24.08 З 4 2900 м слаб. дождь н/о +21.5 +21.3 99 +27 +27 душно 1012.0 936.4 +19.7 37
02 24.08 З 4 4800 м в посл. час дождь н/о +21.9 +21.2 96 +28 +28 душно 1012.5 937.0
03 24.08 СЗ 2 4400 м слаб. дождь н/о +21.7 +21.2 97 +28 +28 душно 1012.1 936.6
04 24.08 З 3 2300 м слаб. дождь н/о +21.2 +21.2 100 +27 +27 душно 1012.0 936.4
05 24.08 СЗ 6 200 м слаб. дождь н/о +19.8 +19.8 100 +23 +23 комфорт 1012.4 936.3
06 24.08 СЗ 4 5000 м слаб. дождь н/о +20.2 +20.1 99 +24 +24 комфорт 1012.1 936.2 2
08 24.08 СЗ 5 10 км в посл. час дождь н/о +19.5 +18.5 94 +22 +22 комфорт 1012.5 936.3
09 24.08 СЗ 3 5000 м слаб. дождь н/о +19.2 +19.2 100 +22 +22 комфорт 1012.9 936.6
10 24.08 СЗ 2 2500 м слаб. дождь н/о +18.9 +18.9 100 +21 +21 комфорт 1013.2 936.8
11 24.08 СЗ 4 3000 м слаб. дождь н/о +18.6 +18.6 100 +20 +20 1013.6 937.1
12 24.08 З 5 8000 м слаб. дождь н/о +20.6 +19.6 94 +25 +25 комфорт 1013.0 937.1 +22.7 8
13 24.08 З 4 8000 м слаб. дождь н/о +19.0 +18.5 97 +21 +21 комфорт 1013.5 937.1
14 24.08 З 5 8000 м в посл. час дождь н/о +18.7 +18.5 99 +20 +20 1013.3 936.8
15 24.08 СЗ 4 5000 м дымка {дождь} н/о +18.3 +18.3 100 +19 +19 1013.6 937.0
16 24.08 СЗ 5 16 км н/о +17.5 +17.0 97 +17 +17 1014.1 937.2
18 24.08 СЗ 6 20 км слаб. дождь н/о +17.7 +13.4 76 +17 +17 1014.2 937.4 0.0
19 24.08 СЗ 5 19 км слаб. дождь н/о +16.5 +15.0 91 +16 +16 1014.3 937.1
20 24.08 СЗ 5 7000 м в посл. час дождь н/о +16.3 +16.2 99 +15 +15 1013.7 936.5
21 24.08 С 3 10 км {дождь} н/о +15.7 +15.6 99 +15 +15 1014.2 936.8
22 24.08 С 3 18 км н/о +16.7 +16.4 98 +16 +16 1014.7 937.6
23 24.08 СВ 2 20 км н/о +18.7 +17.9 95 +21 +21 комфорт 1014.3 937.8
00 25.08 З 1 20 км {дождь} н/о +20.6 +17.8 84 +25 +25 комфорт 1014.3 938.3 +15.5 2
01 25.08 С 2 20 км слаб. дождь н/о +20.1 +18.4 90 +24 +24 комфорт 1015.0 938.8
02 25.08 С 2 10 км слаб. дождь н/о +18.7 +18.2 97 +20 +20 1015.2 938.6
03 25.08 З 4 2400 м сильн. дождь н/о +18.9 +18.6 98 +20 +20 1015.1 938.6
04 25.08 З 5 15 км слаб. дождь н/о +20.3 +19.7 96 +24 +24 комфорт 1014.3 938.2
05 25.08 СЗ 6 2300 м сильн. дождь н/о +18.3 +16.3 88 +18 +18 1014.7 938.0
07 25.08 С 5 14 км в посл. час дождь н/о +18.3 +18.1 99 +19 +19 1014.5 937.8
08 25.08 С 3 16 км н/о +19.0 +18.4 96 +21 +21 комфорт 1014.3 937.9
09 25.08 СЗ 3 20 км {дождь} н/о +18.3 +17.5 95 +19 +19 1014.6 937.9
10 25.08 ЮЗ 1 18 км н/о +16.9 +16.1 95 +18 +18 1015.1 938.0
11 25.08 ЮВ 2 14 км н/о +17.0 +16.7 98 +17 +17 1015.4 938.3
12 25.08 Ю 2 13 км {дождь} н/о +16.8 +16.7 99 +17 +17 1016.1 938.9 +21.2 16
13 25.08 Ю 2 9000 м дымка н/о +16.7 +16.7 100 +17 +17 1016.0 938.8
14 25.08 З 1 14 км слаб. дождь н/о +16.9 +16.9 100 +18 +18 1015.7 938.5
15 25.08 ЮВ 3 13 км в посл. час дождь н/о +16.5 +16.0 97 +16 +16 1015.3 938.1
17 25.08 Ю 2 14 км н/о +17.7 +17.6 99 +18 +18 1014.6 937.8

 

Местоположение метеостанции Ундзэн (Япония): широта 32.73 долгота 130.26 высота над уровнем моря 679 м.

В архиве по умолчанию представлена погода на Ундзэне за последнюю неделю. Архивные данные за месяц целиком и за предыдущие месяцы, начиная с января 2011 года, Вы можете получить, выбрав интересующий диапазон дат из раскрывающегося списка и нажав кнопку "Ввод!".


*Определитесь, кто Вы:
робот инопланетянин человек

Внимание! Время в таблицах - всемирное. Для получения местного времени необходимо прибавить поправку, которая равна 9 ч.

Смотрите также архив погоды в соседних городах и на ближайших метеорологических станциях:

Погода в Нагасаки (Япония) (37 км)
Погода в Кумамото (Япония) (41 км)
Погода в Саге (Япония) (60 км)
Погода в Сасебо (Япония) (68 км)
Погода в Хитоёси (Япония) (73 км)
Погода на Асо (Япония) (77 км)
Погода в Акуне (Япония) (78 км)
Погода в Хите (Япония) (91 км)
Погода в Фукуоке (Япония) (95 км)
Погода в Хирадо (Япония) (97 км)

Пояснения к столбцам:

Ветер - указаны скорость ветра в м/с - средняя за 10 мин, порывы в срок и между сроками (в фигурных скобках) и направление, откуда дует ветер: С - северный, СВ - северо-восточный, В - восточный, ЮВ - юго-восточный, Ю - южный, ЮЗ - юго-западный, З - западный, СЗ - северо-западный.
Видимость - горизонтальная дальность видимости в метрах или километрах. При видимости от 1 до 10 км при отсутствии осадков обычно наблюдается дымка, при ухудшении видимости до 1 км и менее - туман. В сухую погоду видимость может ухудшаться дымом, пылью или мглою.
Явления - указаны атмосферные явления, наблюдавшиеся в срок или в последний час перед сроком; фигурными скобками обозначены явления, наблюдавшиеся между сроками (за 1-3 часа до срока); квадратными скобками обозначены град или гололедные отложения с указанием их диаметра в мм.
Облачность - указаны через наклонную черту общая и нижняя облачность в баллах и высота нижней границы облаков в метрах; квадратными скобками обозначены формы облаков: Ci - перистые, Cs - перисто-слоистые, Cc - перисто-кучевые, Ac - высококучевые, As - высокослоистые, Sc - слоисто-кучевые, Ns - слоисто-дождевые, Cu - кучевые, Cb - кучево-дождевые. Подробнее классификацию облаков см. в Атласе облаков (PDF).
T - Температура воздуха - температура, измеренная на высоте 2 м над землей.
Td - Температура точки росы - температура, при понижении до которой содержащийся в воздухе водяной пар достигнет насыщения.
f - Относительная влажность воздуха - влажноcть воздуха, измеренная на высоте 2 м над землей.
Te - Эффективная температура - температура, которую ощущает одетый по сезону человек в тени. Характеристика душности погоды. При расчете учитывается влияние влажности воздуха и скорости ветра на теплоощущения человека.
Tes - Эффективная температура на солнце - температура, которую ощущает человек, с поправкой на солнечный нагрев. Характеристика знойности погоды. Зависит от высоты солнца над горизонтом, облачности и скорости ветра. Ночью, в пасмурную погоду, а также при ветре 12 м/с и более поправка равна нулю.
P - Атмосферное давление - приведенное к уровню моря атмосферное давление.
Po - Атмосферное давление - измеренное на уровне метеостанции атмосферное давление.
Tmin - Минимальная температура - минимум температуры воздуха на высоте 2 м над землей.
Tmax - Максимальная температура - максимум температуры воздуха на высоте 2 м над землей.
R - Количество осадков - Количество выпавших осадков за период времени, мм. При наведении курсора мыши на число - период времени, за который выпало указанное количество осадков.
R24 - Количество осадков - Количество выпавших осадков за 24 часа, мм.
S - Снежный покров - Высота снежного покрова, см. При наведении курсора мыши на число - состояние снежного покрова и степень покрытия местности в баллах.